Total_Precipitation_Accumulation
0.64 0.70 0.82 1.00 1.20 1.25 1.28 1.42 1.49 1.66 1.88 2.11 2.28 2.31 2.34 2.26 2.21 2.12 2.03 1.97 2.00 2.01 2.04 2.01 2.13 2.19 2.13 2.02 1.94 1.84 1.77 1.62 1.47 1.54 1.61 1.49 1.22 1.04 0.95 0.92 0.90 0.81 0.70
0.67 0.75 0.84 0.98 1.21 1.29 1.29 1.42 1.54 1.65 1.71 1.84 2.01 2.11 2.25 2.30 2.25 2.16 2.15 2.03 1.95 1.92 1.99 2.01 1.95 1.98 2.01 1.99 1.92 1.86 1.82 1.77 1.63 1.62 1.71 1.73 1.63 1.30 0.98 0.89 0.87 0.87 0.84
0.70 0.74 0.82 0.94 1.20 1.36 1.36 1.39 1.50 1.65 1.72 1.83 2.05 2.18 2.39 2.47 2.51 2.31 2.16 2.09 2.04 1.94 1.90 1.98 2.00 1.94 1.91 1.90 1.86 1.79 1.72 1.72 1.61 1.45 1.63 1.72 1.50 1.22 1.02 0.90 0.81 0.78 0.86
0.71 0.76 0.77 0.88 1.08 1.26 1.39 1.45 1.56 1.67 1.70 1.88 2.06 2.08 2.24 2.31 2.26 2.13 2.05 1.98 1.99 1.97 1.90 1.90 1.96 2.00 1.91 1.80 1.78 1.79 1.74 1.76 1.77 1.57 1.38 1.36 1.26 1.26 1.10 0.95 0.90 0.85 0.83
0.66 0.74 0.76 0.76 0.89 1.06 1.26 1.40 1.59 1.74 1.76 1.80 1.97 2.04 2.00 2.08 2.19 2.23 2.16 2.06 2.00 1.94 1.89 1.89 1.90 1.91 1.89 1.77 1.72 1.76 1.79 1.80 1.79 1.70 1.49 1.32 1.13 1.07 1.17 1.00 0.91 0.99 0.96
0.71 0.73 0.72 0.71 0.83 0.99 1.16 1.32 1.49 1.65 1.76 1.76 1.85 2.02 1.99 1.96 2.08 2.25 2.30 2.22 2.10 2.01 1.87 1.79 1.81 1.79 1.72 1.68 1.64 1.64 1.63 1.67 1.71 1.68 1.59 1.50 1.41 1.20 1.17 1.11 0.91 0.91 0.93
0.73 0.78 0.67 0.70 0.76 0.88 1.05 1.21 1.41 1.50 1.61 1.67 1.73 1.79 1.93 1.91 1.90 1.95 2.06 2.21 2.16 2.02 1.91 1.83 1.74 1.71 1.64 1.57 1.56 1.58 1.57 1.52 1.55 1.59 1.54 1.45 1.34 1.25 1.28 1.37 1.24 1.09 0.96
0.67 0.72 0.68 0.70 0.73 0.77 0.89 1.06 1.20 1.38 1.55 1.64 1.67 1.70 1.78 1.90 1.84 1.83 1.80 1.92 2.00 1.87 1.78 1.82 1.75 1.67 1.65 1.64 1.61 1.58 1.56 1.55 1.48 1.41 1.41 1.44 1.33 1.31 1.41 1.53 1.63 1.55 1.19
0.72 0.69 0.69 0.72 0.70 0.76 0.82 0.97 1.06 1.22 1.44 1.62 1.68 1.69 1.73 1.79 1.80 1.77 1.76 1.77 1.80 1.82 1.80 1.79 1.78 1.71 1.73 1.77 1.78 1.73 1.60 1.56 1.53 1.47 1.39 1.39 1.37 1.33 1.34 1.41 1.58 1.89 1.72
0.80 0.77 0.72 0.77 0.75 0.76 0.80 0.86 1.02 1.13 1.28 1.50 1.71 1.73 1.69 1.67 1.75 1.81 1.84 1.80 1.76 1.79 1.80 1.80 1.81 1.76 1.70 1.76 1.83 1.78 1.68 1.67 1.60 1.59 1.56 1.43 1.35 1.38 1.42 1.50 1.51 1.61 1.77
0.82 0.76 0.70 0.71 0.75 0.78 0.86 0.90 0.98 1.09 1.21 1.31 1.51 1.66 1.68 1.69 1.73 1.77 1.74 1.78 1.77 1.77 1.74 1.70 1.73 1.80 1.77 1.72 1.78 1.74 1.68 1.68 1.61 1.57 1.60 1.49 1.39 1.50 1.54 1.61 1.64 1.59 1.63
0.73 0.73 0.67 0.68 0.75 0.83 0.90 0.98 1.01 1.00 1.10 1.21 1.33 1.49 1.62 1.67 1.71 1.69 1.70 1.75 1.76 1.75 1.68 1.64 1.65 1.70 1.73 1.71 1.73 1.72 1.67 1.65 1.62 1.57 1.59 1.57 1.49 1.50 1.53 1.64 1.64 1.56 1.49
0.70 0.74 0.75 0.72 0.76 0.84 0.91 0.98 1.04 0.98 1.00 1.18 1.29 1.43 1.55 1.57 1.60 1.56 1.61 1.77 1.85 1.83 1.69 1.63 1.64 1.67 1.74 1.71 1.66 1.74 1.72 1.63 1.56 1.53 1.57 1.60 1.60 1.52 1.46 1.55 1.60 1.53 1.48
0.63 0.72 0.83 0.80 0.75 0.79 0.84 0.87 0.98 1.02 1.01 1.06 1.22 1.35 1.48 1.46 1.44 1.46 1.48 1.60 1.76 1.84 1.75 1.62 1.59 1.65 1.78 1.79 1.76 1.83 1.79 1.67 1.54 1.44 1.44 1.52 1.65 1.67 1.65 1.65 1.61 1.63 1.72
0.57 0.72 0.82 0.82 0.84 0.86 0.88 0.85 0.88 0.99 1.05 1.02 1.11 1.20 1.32 1.41 1.39 1.37 1.42 1.54 1.64 1.65 1.67 1.68 1.61 1.64 1.87 2.09 2.22 2.10 1.83 1.64 1.55 1.38 1.29 1.38 1.66 1.88 2.04 2.08 1.91 1.92 2.10
0.52 0.59 0.68 0.75 0.86 0.94 0.96 0.94 0.91 0.95 1.03 1.02 1.06 1.11 1.25 1.39 1.39 1.33 1.39 1.54 1.66 1.65 1.63 1.67 1.64 1.61 1.79 2.24 2.46 2.08 1.69 1.54 1.49 1.43 1.29 1.31 1.59 1.78 1.96 2.12 2.08 2.08 2.27
0.48 0.49 0.60 0.73 0.83 0.93 0.95 0.97 0.95 0.97 1.03 1.04 1.06 1.12 1.25 1.32 1.37 1.36 1.40 1.52 1.64 1.65 1.63 1.62 1.62 1.59 1.65 2.05 2.27 2.03 1.67 1.51 1.41 1.35 1.31 1.34 1.44 1.61 1.63 1.80 1.88 1.86 2.01
0.51 0.51 0.59 0.71 0.76 0.84 0.88 0.92 0.89 1.01 1.07 1.06 1.06 1.12 1.20 1.24 1.34 1.38 1.41 1.53 1.60 1.57 1.57 1.59 1.56 1.53 1.60 1.94 2.18 2.01 1.69 1.58 1.48 1.42 1.33 1.26 1.30 1.45 1.64 1.75 1.74 1.63 1.67
0.55 0.56 0.60 0.69 0.70 0.76 0.83 0.87 0.84 0.93 1.02 1.06 1.01 1.05 1.14 1.19 1.28 1.34 1.41 1.50 1.60 1.56 1.51 1.49 1.54 1.50 1.52 1.86 2.21 2.07 1.72 1.65 1.54 1.49 1.39 1.26 1.20 1.45 1.67 1.63 1.60 1.51 1.53
0.48 0.55 0.58 0.62 0.65 0.70 0.75 0.78 0.84 0.87 0.95 1.01 0.93 0.99 1.07 1.13 1.23 1.28 1.35 1.43 1.46 1.48 1.49 1.45 1.46 1.45 1.43 1.70 2.12 2.22 1.76 1.64 1.54 1.51 1.44 1.50 1.45 1.58 1.61 1.49 1.57 1.69 1.55
0.46 0.50 0.52 0.58 0.65 0.69 0.69 0.73 0.82 0.88 0.92 0.99 0.93 0.97 1.01 1.07 1.17 1.26 1.26 1.34 1.41 1.42 1.48 1.48 1.46 1.43 1.44 1.55 1.85 2.20 1.91 1.72 1.56 1.54 1.52 1.44 1.62 1.64 1.60 1.57 1.53 1.72 1.62
0.46 0.49 0.52 0.56 0.60 0.64 0.68 0.70 0.75 0.83 0.90 0.94 0.94 1.01 1.05 1.07 1.12 1.21 1.20 1.23 1.34 1.41 1.45 1.48 1.52 1.49 1.46 1.52 1.73 1.99 1.97 1.84 1.62 1.53 1.41 1.38 1.58 1.61 1.64 1.60 1.64 1.70 1.66
0.50 0.51 0.55 0.55 0.58 0.63 0.69 0.75 0.78 0.80 0.89 0.93 0.94 1.00 1.09 1.12 1.14 1.17 1.17 1.21 1.28 1.36 1.40 1.41 1.42 1.46 1.41 1.50 1.78 1.76 1.79 1.81 1.70 1.67 1.69 1.62 1.69 1.69 1.58 1.55 1.60 1.54 1.45
0.55 0.56 0.59 0.59 0.61 0.64 0.70 0.79 0.82 0.80 0.87 0.92 0.93 0.99 1.05 1.11 1.15 1.12 1.07 1.08 1.19 1.32 1.33 1.34 1.31 1.28 1.31 1.50 1.70 1.62 1.58 1.67 1.75 1.81 1.78 1.76 1.78 1.72 1.64 1.57 1.44 1.33 1.34
0.59 0.60 0.63 0.65 0.68 0.67 0.73 0.80 0.82 0.82 0.87 0.85 0.85 0.91 0.95 1.05 1.15 1.15 1.09 1.08 1.08 1.27 1.42 1.37 1.33 1.37 1.48 1.63 1.80 1.74 1.68 1.71 1.78 1.87 1.91 1.83 1.78 1.76 1.62 1.42 1.27 1.23 1.30
0.61 0.62 0.64 0.67 0.73 0.73 0.76 0.80 0.83 0.81 0.82 0.84 0.82 0.85 0.89 0.95 1.04 1.08 1.13 1.25 1.23 1.26 1.28 1.29 1.38 1.36 1.50 1.60 1.62 1.67 1.73 1.84 1.91 1.96 1.92 1.72 1.51 1.44 1.37 1.29 1.22 1.19 1.19